Year,Month,Day,Hour,Minute,Value (Times are PST for insolation in W/m^2)
2015,01,25,00,00,0.00
2015,01,25,00,01,0.00
2015,01,25,00,02,0.00
2015,01,25,00,03,0.00
2015,01,25,00,04,0.00
2015,01,25,00,05,0.00
2015,01,25,00,06,0.00
2015,01,25,00,07,0.00
2015,01,25,00,08,0.00
2015,01,25,00,09,0.00
2015,01,25,00,10,0.00
2015,01,25,00,11,0.00
2015,01,25,00,12,0.00
2015,01,25,00,13,0.00
2015,01,25,00,14,0.00
2015,01,25,00,15,0.00
2015,01,25,00,16,0.00
2015,01,25,00,17,0.00
2015,01,25,00,18,0.00
2015,01,25,00,19,0.00
2015,01,25,00,20,0.00
2015,01,25,00,21,0.00
2015,01,25,00,22,0.00
2015,01,25,00,23,0.00
2015,01,25,00,24,0.00
2015,01,25,00,25,0.00
2015,01,25,00,26,0.00
2015,01,25,00,27,0.00
2015,01,25,00,28,0.00
2015,01,25,00,29,0.00
2015,01,25,00,30,0.00
2015,01,25,00,31,0.00
2015,01,25,00,32,0.00
2015,01,25,00,33,0.00
2015,01,25,00,34,0.00
2015,01,25,00,35,0.00
2015,01,25,00,36,0.00
2015,01,25,00,37,0.00
2015,01,25,00,38,0.00
2015,01,25,00,39,0.00
2015,01,25,00,40,0.00
2015,01,25,00,41,0.00
2015,01,25,00,42,0.00
2015,01,25,00,43,0.00
2015,01,25,00,44,0.00
2015,01,25,00,45,0.00
2015,01,25,00,46,0.00
2015,01,25,00,47,0.00
2015,01,25,00,48,0.00
2015,01,25,00,49,0.00
2015,01,25,00,50,0.00
2015,01,25,00,51,0.00
2015,01,25,00,52,0.00
2015,01,25,00,53,0.00
2015,01,25,00,54,0.00
2015,01,25,00,55,0.00
2015,01,25,00,56,0.00
2015,01,25,00,57,0.00
2015,01,25,00,58,0.00
2015,01,25,00,59,0.00
2015,01,25,01,00,0.00
2015,01,25,01,01,0.00
2015,01,25,01,02,0.00
2015,01,25,01,03,0.00
2015,01,25,01,04,0.00
2015,01,25,01,05,0.00
2015,01,25,01,06,0.00
2015,01,25,01,07,0.00
2015,01,25,01,08,0.00
2015,01,25,01,09,0.00
2015,01,25,01,10,0.00
2015,01,25,01,11,0.00
2015,01,25,01,12,0.00
2015,01,25,01,13,0.00
2015,01,25,01,14,0.00
2015,01,25,01,15,0.00
2015,01,25,01,16,0.00
2015,01,25,01,17,0.00
2015,01,25,01,18,0.00
2015,01,25,01,19,0.00
2015,01,25,01,20,0.00
2015,01,25,01,21,0.00
2015,01,25,01,22,0.00
2015,01,25,01,23,0.00
2015,01,25,01,24,0.00
2015,01,25,01,25,0.00
2015,01,25,01,26,0.00
2015,01,25,01,27,0.00
2015,01,25,01,28,0.00
2015,01,25,01,29,0.00
2015,01,25,01,30,0.00
2015,01,25,01,31,0.00
2015,01,25,01,32,0.00
2015,01,25,01,33,0.00
2015,01,25,01,34,0.00
2015,01,25,01,35,0.00
2015,01,25,01,36,0.00
2015,01,25,01,37,0.00
2015,01,25,01,38,0.00
2015,01,25,01,39,0.00
2015,01,25,01,40,0.00
2015,01,25,01,41,0.00
2015,01,25,01,42,0.00
2015,01,25,01,43,0.00
2015,01,25,01,44,0.00
2015,01,25,01,45,0.00
2015,01,25,01,46,0.00
2015,01,25,01,47,0.00
2015,01,25,01,48,0.00
2015,01,25,01,49,0.00
2015,01,25,01,50,0.00
2015,01,25,01,51,0.00
2015,01,25,01,52,0.00
2015,01,25,01,53,0.00
2015,01,25,01,54,0.00
2015,01,25,01,55,0.00
2015,01,25,01,56,0.00
2015,01,25,01,57,0.00
2015,01,25,01,58,0.00
2015,01,25,01,59,0.00
2015,01,25,02,00,0.00
2015,01,25,02,01,0.00
2015,01,25,02,02,0.00
2015,01,25,02,03,0.00
2015,01,25,02,04,0.00
2015,01,25,02,05,0.00
2015,01,25,02,06,0.00
2015,01,25,02,07,0.00
2015,01,25,02,08,0.00
2015,01,25,02,09,0.00
2015,01,25,02,10,0.00
2015,01,25,02,11,0.00
2015,01,25,02,12,0.00
2015,01,25,02,13,0.00
2015,01,25,02,14,0.00
2015,01,25,02,15,0.00
2015,01,25,02,16,0.00
2015,01,25,02,17,0.00
2015,01,25,02,18,0.00
2015,01,25,02,19,0.00
2015,01,25,02,20,0.00
2015,01,25,02,21,0.00
2015,01,25,02,22,0.00
2015,01,25,02,23,0.00
2015,01,25,02,24,0.00
2015,01,25,02,25,0.00
2015,01,25,02,26,0.00
2015,01,25,02,27,0.00
2015,01,25,02,28,0.00
2015,01,25,02,29,0.00
2015,01,25,02,30,0.00
2015,01,25,02,31,0.00
2015,01,25,02,32,0.00
2015,01,25,02,33,0.00
2015,01,25,02,34,0.00
2015,01,25,02,35,0.00
2015,01,25,02,36,0.00
2015,01,25,02,37,0.00
2015,01,25,02,38,0.00
2015,01,25,02,39,0.00
2015,01,25,02,40,0.00
2015,01,25,02,41,0.00
2015,01,25,02,42,0.00
2015,01,25,02,43,0.00
2015,01,25,02,44,0.00
2015,01,25,02,45,0.00
2015,01,25,02,46,0.00
2015,01,25,02,47,0.00
2015,01,25,02,48,0.00
2015,01,25,02,49,0.00
2015,01,25,02,50,0.00
2015,01,25,02,51,0.00
2015,01,25,02,52,0.00
2015,01,25,02,53,0.00
2015,01,25,02,54,0.00
2015,01,25,02,55,0.00
2015,01,25,02,56,0.00
2015,01,25,02,57,0.00
2015,01,25,02,58,0.00
2015,01,25,02,59,0.00
2015,01,25,03,00,0.00
2015,01,25,03,01,0.00
2015,01,25,03,02,0.00
2015,01,25,03,03,0.00
2015,01,25,03,04,0.00
2015,01,25,03,05,0.00
2015,01,25,03,06,0.00
2015,01,25,03,07,0.00
2015,01,25,03,08,0.00
2015,01,25,03,09,0.00
2015,01,25,03,10,0.00
2015,01,25,03,11,0.00
2015,01,25,03,12,0.00
2015,01,25,03,13,0.00
2015,01,25,03,14,0.00
2015,01,25,03,15,0.00
2015,01,25,03,16,0.00
2015,01,25,03,17,0.00
2015,01,25,03,18,0.00
2015,01,25,03,19,0.00
2015,01,25,03,20,0.00
2015,01,25,03,21,0.00
2015,01,25,03,22,0.00
2015,01,25,03,23,0.00
2015,01,25,03,24,0.00
2015,01,25,03,25,0.00
2015,01,25,03,26,0.00
2015,01,25,03,27,0.00
2015,01,25,03,28,0.00
2015,01,25,03,29,0.00
2015,01,25,03,30,0.00
2015,01,25,03,31,0.00
2015,01,25,03,32,0.00
2015,01,25,03,33,0.00
2015,01,25,03,34,0.00
2015,01,25,03,35,0.00
2015,01,25,03,36,0.00
2015,01,25,03,37,0.00
2015,01,25,03,38,0.00
2015,01,25,03,39,0.00
2015,01,25,03,40,0.00
2015,01,25,03,41,0.00
2015,01,25,03,42,0.00
2015,01,25,03,43,0.00
2015,01,25,03,44,0.00
2015,01,25,03,45,0.00
2015,01,25,03,46,0.00
2015,01,25,03,47,0.00
2015,01,25,03,48,0.00
2015,01,25,03,49,0.00
2015,01,25,03,50,0.00
2015,01,25,03,51,0.00
2015,01,25,03,52,0.00
2015,01,25,03,53,0.00
2015,01,25,03,54,0.00
2015,01,25,03,55,0.00
2015,01,25,03,56,0.00
2015,01,25,03,57,0.00
2015,01,25,03,58,0.00
2015,01,25,03,59,0.00
2015,01,25,04,00,0.00
2015,01,25,04,01,0.00
2015,01,25,04,02,0.00
2015,01,25,04,03,0.00
2015,01,25,04,04,0.00
2015,01,25,04,05,0.00
2015,01,25,04,06,0.00
2015,01,25,04,07,0.00
2015,01,25,04,08,0.00
2015,01,25,04,09,0.00
2015,01,25,04,10,0.00
2015,01,25,04,11,0.00
2015,01,25,04,12,0.00
2015,01,25,04,13,0.00
2015,01,25,04,14,0.00
2015,01,25,04,15,0.00
2015,01,25,04,16,0.00
2015,01,25,04,17,0.00
2015,01,25,04,18,0.00
2015,01,25,04,19,0.00
2015,01,25,04,20,0.00
2015,01,25,04,21,0.00
2015,01,25,04,22,0.00
2015,01,25,04,23,0.00
2015,01,25,04,24,0.00
2015,01,25,04,25,0.00
2015,01,25,04,26,0.00
2015,01,25,04,27,0.00
2015,01,25,04,28,0.00
2015,01,25,04,29,0.00
2015,01,25,04,30,0.00
2015,01,25,04,31,0.00
2015,01,25,04,32,0.00
2015,01,25,04,33,0.00
2015,01,25,04,34,0.00
2015,01,25,04,35,0.00
2015,01,25,04,36,0.00
2015,01,25,04,37,0.00
2015,01,25,04,38,0.00
2015,01,25,04,39,0.00
2015,01,25,04,40,0.00
2015,01,25,04,41,0.00
2015,01,25,04,42,0.00
2015,01,25,04,43,0.00
2015,01,25,04,44,0.00
2015,01,25,04,45,0.00
2015,01,25,04,46,0.00
2015,01,25,04,47,0.00
2015,01,25,04,48,0.00
2015,01,25,04,49,0.00
2015,01,25,04,50,0.00
2015,01,25,04,51,0.00
2015,01,25,04,52,0.00
2015,01,25,04,53,0.00
2015,01,25,04,54,0.00
2015,01,25,04,55,0.00
2015,01,25,04,56,0.00
2015,01,25,04,57,0.00
2015,01,25,04,58,0.00
2015,01,25,04,59,0.00
2015,01,25,05,00,0.00
2015,01,25,05,01,0.00
2015,01,25,05,02,0.00
2015,01,25,05,03,0.00
2015,01,25,05,04,0.00
2015,01,25,05,05,0.00
2015,01,25,05,06,0.00
2015,01,25,05,07,0.00
2015,01,25,05,08,0.00
2015,01,25,05,09,0.00
2015,01,25,05,10,0.00
2015,01,25,05,11,0.00
2015,01,25,05,12,0.00
2015,01,25,05,13,0.00
2015,01,25,05,14,0.00
2015,01,25,05,15,0.00
2015,01,25,05,16,0.00
2015,01,25,05,17,0.00
2015,01,25,05,18,0.00
2015,01,25,05,19,0.00
2015,01,25,05,20,0.00
2015,01,25,05,21,0.00
2015,01,25,05,22,0.00
2015,01,25,05,23,0.00
2015,01,25,05,24,0.00
2015,01,25,05,25,0.00
2015,01,25,05,26,0.00
2015,01,25,05,27,0.00
2015,01,25,05,28,0.00
2015,01,25,05,29,0.00
2015,01,25,05,30,0.00
2015,01,25,05,31,0.00
2015,01,25,05,32,0.00
2015,01,25,05,33,0.00
2015,01,25,05,34,0.00
2015,01,25,05,35,0.00
2015,01,25,05,36,0.00
2015,01,25,05,37,0.00
2015,01,25,05,38,0.00
2015,01,25,05,39,0.00
2015,01,25,05,40,0.00
2015,01,25,05,41,0.00
2015,01,25,05,42,0.00
2015,01,25,05,43,0.00
2015,01,25,05,44,0.00
2015,01,25,05,45,0.00
2015,01,25,05,46,0.00
2015,01,25,05,47,0.00
2015,01,25,05,48,0.00
2015,01,25,05,49,0.00
2015,01,25,05,50,0.00
2015,01,25,05,51,0.00
2015,01,25,05,52,0.00
2015,01,25,05,53,0.00
2015,01,25,05,54,0.00
2015,01,25,05,55,0.00
2015,01,25,05,56,0.00
2015,01,25,05,57,0.00
2015,01,25,05,58,0.00
2015,01,25,05,59,0.00
2015,01,25,06,00,0.00
2015,01,25,06,01,0.00
2015,01,25,06,02,0.00
2015,01,25,06,03,0.00
2015,01,25,06,04,0.00
2015,01,25,06,05,0.00
2015,01,25,06,06,0.00
2015,01,25,06,07,0.00
2015,01,25,06,08,0.00
2015,01,25,06,09,0.00
2015,01,25,06,10,0.00
2015,01,25,06,11,0.00
2015,01,25,06,12,0.00
2015,01,25,06,13,0.00
2015,01,25,06,14,0.00
2015,01,25,06,15,0.00
2015,01,25,06,16,0.00
2015,01,25,06,17,0.00
2015,01,25,06,18,0.00
2015,01,25,06,19,0.00
2015,01,25,06,20,0.00
2015,01,25,06,21,0.00
2015,01,25,06,22,0.00
2015,01,25,06,23,0.00
2015,01,25,06,24,0.00
2015,01,25,06,25,0.00
2015,01,25,06,26,0.00
2015,01,25,06,27,0.00
2015,01,25,06,28,0.00
2015,01,25,06,29,0.00
2015,01,25,06,30,0.00
2015,01,25,06,31,0.00
2015,01,25,06,32,0.00
2015,01,25,06,33,0.00
2015,01,25,06,34,0.00
2015,01,25,06,35,0.00
2015,01,25,06,36,0.00
2015,01,25,06,37,0.00
2015,01,25,06,38,0.00
2015,01,25,06,39,0.00
2015,01,25,06,40,0.00
2015,01,25,06,41,0.00
2015,01,25,06,42,0.00
2015,01,25,06,43,0.00
2015,01,25,06,44,0.00
2015,01,25,06,45,0.00
2015,01,25,06,46,0.00
2015,01,25,06,47,0.00
2015,01,25,06,48,0.00
2015,01,25,06,49,0.00
2015,01,25,06,50,0.00
2015,01,25,06,51,0.00
2015,01,25,06,52,0.00
2015,01,25,06,53,0.00
2015,01,25,06,54,0.00
2015,01,25,06,55,0.00
2015,01,25,06,56,0.00
2015,01,25,06,57,0.00
2015,01,25,06,58,0.00
2015,01,25,06,59,0.00
2015,01,25,07,00,0.00
2015,01,25,07,01,0.00
2015,01,25,07,02,0.00
2015,01,25,07,03,0.00
2015,01,25,07,04,0.00
2015,01,25,07,05,0.00
2015,01,25,07,06,0.00
2015,01,25,07,07,0.00
2015,01,25,07,08,0.00
2015,01,25,07,09,0.00
2015,01,25,07,10,0.00
2015,01,25,07,11,0.00
2015,01,25,07,12,0.00
2015,01,25,07,13,0.00
2015,01,25,07,14,0.00
2015,01,25,07,15,0.00
2015,01,25,07,16,0.00
2015,01,25,07,17,0.00
2015,01,25,07,18,0.00
2015,01,25,07,19,0.00
2015,01,25,07,20,0.00
2015,01,25,07,21,0.00
2015,01,25,07,22,0.00
2015,01,25,07,23,0.00
2015,01,25,07,24,0.00
2015,01,25,07,25,0.00
2015,01,25,07,26,0.00
2015,01,25,07,27,0.00
2015,01,25,07,28,0.00
2015,01,25,07,29,0.00
2015,01,25,07,30,0.00
2015,01,25,07,31,0.00
2015,01,25,07,32,0.00
2015,01,25,07,33,0.00
2015,01,25,07,34,0.00
2015,01,25,07,35,0.00
2015,01,25,07,36,0.00
2015,01,25,07,37,0.00
2015,01,25,07,38,0.00
2015,01,25,07,39,0.00
2015,01,25,07,40,0.00
2015,01,25,07,41,0.00
2015,01,25,07,42,0.00
2015,01,25,07,43,0.00
2015,01,25,07,44,0.00
2015,01,25,07,45,0.00
2015,01,25,07,46,0.00
2015,01,25,07,47,0.00
2015,01,25,07,48,0.00
2015,01,25,07,49,0.00
2015,01,25,07,50,0.00
2015,01,25,07,51,0.00
2015,01,25,07,52,0.00
2015,01,25,07,53,0.00
2015,01,25,07,54,0.00
2015,01,25,07,55,0.00
2015,01,25,07,56,0.00
2015,01,25,07,57,0.00
2015,01,25,07,58,2.40
2015,01,25,07,59,5.00
2015,01,25,08,00,5.90
2015,01,25,08,01,7.00
2015,01,25,08,02,7.90
2015,01,25,08,03,9.00
2015,01,25,08,04,9.90
2015,01,25,08,05,11.00
2015,01,25,08,06,11.50
2015,01,25,08,07,12.00
2015,01,25,08,08,12.90
2015,01,25,08,09,14.00
2015,01,25,08,10,14.00
2015,01,25,08,11,14.90
2015,01,25,08,12,16.90
2015,01,25,08,13,18.00
2015,01,25,08,14,18.00
2015,01,25,08,15,18.00
2015,01,25,08,16,18.00
2015,01,25,08,17,18.00
2015,01,25,08,18,18.00
2015,01,25,08,19,18.50
2015,01,25,08,20,19.90
2015,01,25,08,21,21.00
2015,01,25,08,22,21.00
2015,01,25,08,23,22.00
2015,01,25,08,24,23.00
2015,01,25,08,25,23.90
2015,01,25,08,26,25.00
2015,01,25,08,27,25.00
2015,01,25,08,28,25.50
2015,01,25,08,29,26.00
2015,01,25,08,30,26.00
2015,01,25,08,31,26.90
2015,01,25,08,32,28.00
2015,01,25,08,33,28.90
2015,01,25,08,34,30.90
2015,01,25,08,35,32.00
2015,01,25,08,36,32.00
2015,01,25,08,37,31.10
2015,01,25,08,38,29.10
2015,01,25,08,39,28.00
2015,01,25,08,40,28.00
2015,01,25,08,41,28.00
2015,01,25,08,42,28.00
2015,01,25,08,43,28.90
2015,01,25,08,44,31.40
2015,01,25,08,45,32.50
2015,01,25,08,46,32.50
2015,01,25,08,47,33.00
2015,01,25,08,48,33.90
2015,01,25,08,49,34.10
2015,01,25,08,50,33.00
2015,01,25,08,51,33.00
2015,01,25,08,52,32.50
2015,01,25,08,53,31.10
2015,01,25,08,54,29.00
2015,01,25,08,55,28.00
2015,01,25,08,56,28.90
2015,01,25,08,57,30.00
2015,01,25,08,58,30.90
2015,01,25,08,59,32.00
2015,01,25,09,00,32.00
2015,01,25,09,01,33.30
2015,01,25,09,02,35.90
2015,01,25,09,03,37.90
2015,01,25,09,04,40.30
2015,01,25,09,05,42.90
2015,01,25,09,06,45.30
2015,01,25,09,07,47.90
2015,01,25,09,08,50.80
2015,01,25,09,09,53.00
2015,01,25,09,10,53.50
2015,01,25,09,11,55.80
2015,01,25,09,12,58.00
2015,01,25,09,13,57.10
2015,01,25,09,14,56.00
2015,01,25,09,15,58.70
2015,01,25,09,16,58.20
2015,01,25,09,17,56.70
2015,01,25,09,18,60.00
2015,01,25,09,19,60.00
2015,01,25,09,20,60.90
2015,01,25,09,21,65.20
2015,01,25,09,22,69.00
2015,01,25,09,23,69.40
2015,01,25,09,24,69.60
2015,01,25,09,25,69.40
2015,01,25,09,26,72.70
2015,01,25,09,27,81.40
2015,01,25,09,28,88.90
2015,01,25,09,29,91.30
2015,01,25,09,30,94.80
2015,01,25,09,31,92.10
2015,01,25,09,32,89.20
2015,01,25,09,33,93.90
2015,01,25,09,34,95.90
2015,01,25,09,35,97.50
2015,01,25,09,36,98.90
2015,01,25,09,37,100.00
2015,01,25,09,38,99.10
2015,01,25,09,39,95.80
2015,01,25,09,40,94.90
2015,01,25,09,41,97.40
2015,01,25,09,42,101.20
2015,01,25,09,43,103.70
2015,01,25,09,44,107.70
2015,01,25,09,45,115.80
2015,01,25,09,46,119.30
2015,01,25,09,47,118.80
2015,01,25,09,48,110.30
2015,01,25,09,49,95.90
2015,01,25,09,50,85.10
2015,01,25,09,51,85.80
2015,01,25,09,52,85.50
2015,01,25,09,53,77.80
2015,01,25,09,54,73.80
2015,01,25,09,55,77.30
2015,01,25,09,56,78.10
2015,01,25,09,57,76.60
2015,01,25,09,58,74.20
2015,01,25,09,59,71.10
2015,01,25,10,00,73.20
2015,01,25,10,01,73.70
2015,01,25,10,02,71.80
2015,01,25,10,03,76.20
2015,01,25,10,04,81.20
2015,01,25,10,05,89.20
2015,01,25,10,06,95.90
2015,01,25,10,07,97.40
2015,01,25,10,08,101.20
2015,01,25,10,09,103.60
2015,01,25,10,10,96.60
2015,01,25,10,11,85.10
2015,01,25,10,12,84.40
2015,01,25,10,13,92.90
2015,01,25,10,14,94.10
2015,01,25,10,15,93.00
2015,01,25,10,16,92.00
2015,01,25,10,17,91.00
2015,01,25,10,18,91.00
2015,01,25,10,19,91.00
2015,01,25,10,20,91.00
2015,01,25,10,21,91.00
2015,01,25,10,22,91.00
2015,01,25,10,23,91.00
2015,01,25,10,24,91.00
2015,01,25,10,25,91.00
2015,01,25,11,32,116.00
2015,01,25,11,33,112.80
2015,01,25,11,34,109.90
2015,01,25,11,35,111.00
2015,01,25,11,36,112.30
2015,01,25,11,37,118.10
2015,01,25,11,38,126.20
2015,01,25,11,39,130.90
2015,01,25,11,40,127.90
2015,01,25,11,41,120.80
2015,01,25,11,42,121.20
2015,01,25,11,43,129.10
2015,01,25,11,44,129.90
2015,01,25,11,45,130.40
2015,01,25,11,46,136.10
2015,01,25,11,47,135.90
2015,01,25,11,48,140.10
2015,01,25,11,49,146.20
2015,01,25,11,50,149.90
2015,01,25,11,51,146.50
2015,01,25,11,52,137.90
2015,01,25,11,53,128.10
2015,01,25,11,54,119.70
2015,01,25,11,55,116.20
2015,01,25,11,56,116.70
2015,01,25,11,57,125.40
2015,01,25,11,58,133.40
2015,01,25,11,59,138.10
2015,01,25,12,00,139.80
2015,01,25,12,01,135.60
2015,01,25,12,02,134.40
2015,01,25,12,03,137.70
2015,01,25,12,04,141.40
2015,01,25,12,05,139.80
2015,01,25,12,06,137.00
2015,01,25,12,07,138.80
2015,01,25,12,08,140.10
2015,01,25,12,09,132.70
2015,01,25,12,10,124.10
2015,01,25,12,11,125.20
2015,01,25,12,12,130.70
2015,01,25,12,13,137.10
2015,01,25,12,14,144.10
2015,01,25,12,15,154.30
2015,01,25,12,16,169.20
2015,01,25,12,17,179.40
2015,01,25,12,18,181.00
2015,01,25,12,19,177.90
2015,01,25,12,20,171.80
2015,01,25,12,21,165.90
2015,01,25,12,22,159.30
2015,01,25,12,23,154.60
2015,01,25,12,24,153.00
2015,01,25,12,25,156.10
2015,01,25,12,26,162.20
2015,01,25,12,27,167.70
2015,01,25,12,28,173.20
2015,01,25,12,29,183.20
2015,01,25,12,30,195.60
2015,01,25,12,31,209.40
2015,01,25,12,32,216.50
2015,01,25,12,33,217.30
2015,01,25,12,34,230.40
2015,01,25,12,35,240.10
2015,01,25,12,36,236.40
2015,01,25,12,37,222.90
2015,01,25,12,38,212.60
2015,01,25,12,39,209.60
2015,01,25,12,40,210.40
2015,01,25,12,41,203.30
2015,01,25,12,42,205.90
2015,01,25,12,43,216.60
2015,01,25,12,44,209.30
2015,01,25,12,45,209.40
2015,01,25,12,46,217.60
2015,01,25,12,47,198.80
2015,01,25,12,48,190.00
2015,01,25,12,49,189.10
2015,01,25,12,50,188.90
2015,01,25,12,51,191.40
2015,01,25,12,52,188.50
2015,01,25,12,53,176.70
2015,01,25,12,54,164.10
2015,01,25,12,55,154.90
2015,01,25,12,56,149.60
2015,01,25,12,57,144.90
2015,01,25,12,58,138.30
2015,01,25,12,59,133.60
2015,01,25,13,00,132.00
2015,01,25,13,01,132.00
2015,01,25,13,02,133.40
2015,01,25,13,03,135.00
2015,01,25,13,04,136.00
2015,01,25,13,05,136.10
2015,01,25,13,06,134.60
2015,01,25,13,07,133.10
2015,01,25,13,08,129.80
2015,01,25,13,09,125.20
2015,01,25,13,10,122.10
2015,01,25,13,11,121.00
2015,01,25,13,12,122.80
2015,01,25,13,13,125.90
2015,01,25,13,14,126.10
2015,01,25,13,15,125.00
2015,01,25,13,16,125.90
2015,01,25,13,17,127.40
2015,01,25,13,18,128.90
2015,01,25,13,19,130.90
2015,01,25,13,20,132.00
2015,01,25,13,21,130.20
2015,01,25,13,22,128.00
2015,01,25,13,23,129.80
2015,01,25,13,24,134.20
2015,01,25,13,25,138.80
2015,01,25,13,26,142.40
2015,01,25,13,27,146.20
2015,01,25,13,28,152.10
2015,01,25,13,29,159.10
2015,01,25,13,30,164.80
2015,01,25,13,31,167.00
2015,01,25,13,32,166.10
2015,01,25,13,33,164.10
2015,01,25,13,34,161.60
2015,01,25,13,35,157.80
2015,01,25,13,36,154.10
2015,01,25,13,37,151.20
2015,01,25,13,38,149.00
2015,01,25,13,39,149.00
2015,01,25,13,40,148.60
2015,01,25,13,41,147.10
2015,01,25,13,42,146.00
2015,01,25,13,43,146.00
2015,01,25,13,44,146.90
2015,01,25,13,45,150.20
2015,01,25,13,46,155.20
2015,01,25,13,47,160.20
2015,01,25,13,48,164.80
2015,01,25,13,49,166.10
2015,01,25,13,50,164.10
2015,01,25,13,51,162.60
2015,01,25,13,52,162.00
2015,01,25,13,53,161.10
2015,01,25,13,54,160.00
2015,01,25,13,55,159.10
2015,01,25,13,56,158.00
2015,01,25,13,57,158.00
2015,01,25,13,58,158.00
2015,01,25,13,59,158.90
2015,01,25,14,00,160.90
2015,01,25,14,01,162.40
2015,01,25,14,02,164.80
2015,01,25,14,03,167.90
2015,01,25,14,04,167.20
2015,01,25,14,05,163.60
2015,01,25,14,06,160.20
2015,01,25,14,07,155.80
2015,01,25,14,08,151.20
2015,01,25,14,09,148.60
2015,01,25,14,10,148.00
2015,01,25,14,11,148.40
2015,01,25,14,12,150.80
2015,01,25,14,13,154.40
2015,01,25,14,14,156.00
2015,01,25,14,15,154.60
2015,01,25,14,16,152.10
2015,01,25,14,17,150.10
2015,01,25,14,18,151.70
2015,01,25,14,19,156.40
2015,01,25,14,20,158.00
2015,01,25,14,21,155.80
2015,01,25,14,22,152.10
2015,01,25,14,23,147.90
2015,01,25,14,24,141.80
2015,01,25,14,25,137.20
2015,01,25,14,26,132.80
2015,01,25,14,27,128.60
2015,01,25,14,28,126.10
2015,01,25,14,29,125.00
2015,01,25,14,30,126.30
2015,01,25,14,31,131.10
2015,01,25,14,32,137.70
2015,01,25,14,33,139.20
2015,01,25,14,34,136.10
2015,01,25,14,35,133.60
2015,01,25,14,36,129.80
2015,01,25,14,37,127.00
2015,01,25,14,38,127.00
2015,01,25,14,39,127.00
2015,01,25,14,40,127.00
2015,01,25,14,41,127.40
2015,01,25,14,42,128.90
2015,01,25,14,43,130.90
2015,01,25,14,44,132.90
2015,01,25,14,45,134.00
2015,01,25,14,46,134.40
2015,01,25,14,47,135.90
2015,01,25,14,48,136.10
2015,01,25,14,49,133.60
2015,01,25,14,50,131.10
2015,01,25,14,51,128.60
2015,01,25,14,52,124.10
2015,01,25,14,53,119.60
2015,01,25,14,54,116.20
2015,01,25,14,55,112.70
2015,01,25,14,56,108.30
2015,01,25,14,57,103.70
2015,01,25,14,58,100.20
2015,01,25,14,59,97.60
2015,01,25,15,00,96.10
2015,01,25,15,01,95.00
2015,01,25,15,02,95.00
2015,01,25,15,03,95.00
2015,01,25,15,04,95.90
2015,01,25,15,05,97.40
2015,01,25,15,06,98.90
2015,01,25,15,07,101.80
2015,01,25,15,08,104.40
2015,01,25,15,09,105.90
2015,01,25,15,10,107.00
2015,01,25,15,11,107.00
2015,01,25,15,12,106.10
2015,01,25,15,13,105.00
2015,01,25,15,14,105.00
2015,01,25,15,15,105.90
2015,01,25,15,16,107.00
2015,01,25,15,17,106.10
2015,01,25,15,18,103.70
2015,01,25,15,19,100.20
2015,01,25,15,20,96.70
2015,01,25,15,21,94.10
2015,01,25,15,22,92.10
2015,01,25,15,23,91.90
2015,01,25,15,24,93.90
2015,01,25,15,25,95.90
2015,01,25,15,26,97.00
2015,01,25,15,27,97.00
2015,01,25,15,28,96.10
2015,01,25,15,29,94.10
2015,01,25,15,30,92.10
2015,01,25,15,31,90.60
2015,01,25,15,32,88.20
2015,01,25,15,33,85.10
2015,01,25,15,34,83.60
2015,01,25,15,35,81.20
2015,01,25,15,36,78.10
2015,01,25,15,37,76.60
2015,01,25,15,38,75.10
2015,01,25,15,39,74.00
2015,01,25,15,40,74.00
2015,01,25,15,41,74.00
2015,01,25,15,42,74.00
2015,01,25,15,43,74.00
2015,01,25,15,44,74.00
2015,01,25,15,45,76.20
2015,01,25,15,46,77.70
2015,01,25,15,47,75.10
2015,01,25,15,48,74.90
2015,01,25,15,49,76.40
2015,01,25,15,50,77.00
2015,01,25,15,51,73.40
2015,01,25,15,52,68.10
2015,01,25,15,53,66.10
2015,01,25,15,54,64.10
2015,01,25,15,55,63.00
2015,01,25,15,56,62.50
2015,01,25,15,57,62.00
2015,01,25,15,58,61.10
2015,01,25,15,59,60.00
2015,01,25,16,00,59.10
2015,01,25,16,01,58.00
2015,01,25,16,02,57.10
2015,01,25,16,03,55.10
2015,01,25,16,04,54.00
2015,01,25,16,05,54.00
2015,01,25,16,06,54.00
2015,01,25,16,07,54.00
2015,01,25,16,08,54.00
2015,01,25,16,09,54.00
2015,01,25,16,10,53.50
2015,01,25,16,11,52.10
2015,01,25,16,12,50.10
2015,01,25,16,13,49.00
2015,01,25,16,14,48.10
2015,01,25,16,15,47.00
2015,01,25,16,16,46.50
2015,01,25,16,17,46.00
2015,01,25,16,18,45.10
2015,01,25,16,19,44.00
2015,01,25,16,20,43.10
2015,01,25,16,21,42.00
2015,01,25,16,22,41.10
2015,01,25,16,23,39.50
2015,01,25,16,24,39.00
2015,01,25,16,25,38.10
2015,01,25,16,26,36.10
2015,01,25,16,27,34.10
2015,01,25,16,28,32.50
2015,01,25,16,29,31.10
2015,01,25,16,30,29.10
2015,01,25,16,31,27.10
2015,01,25,16,32,25.50
2015,01,25,16,33,24.10
2015,01,25,16,34,22.10
2015,01,25,16,35,20.10
2015,01,25,16,36,18.50
2015,01,25,16,37,17.10
2015,01,25,16,38,16.00
2015,01,25,16,39,15.10
2015,01,25,16,40,14.00
2015,01,25,16,41,13.10
2015,01,25,16,42,12.00
2015,01,25,16,43,12.00
2015,01,25,16,44,11.60
2015,01,25,16,45,11.00
2015,01,25,16,46,11.00
2015,01,25,16,47,10.10
2015,01,25,16,48,9.00
2015,01,25,16,49,9.00
2015,01,25,16,50,8.10
2015,01,25,16,51,7.00
2015,01,25,16,52,7.00
2015,01,25,16,53,6.10
2015,01,25,16,54,5.00
2015,01,25,16,55,5.00
2015,01,25,16,56,2.80
2015,01,25,16,57,0.00
2015,01,25,16,58,0.00
2015,01,25,16,59,0.00
2015,01,25,17,00,0.00
2015,01,25,17,01,0.00
2015,01,25,17,02,0.00
2015,01,25,17,03,0.00
2015,01,25,17,04,0.00
2015,01,25,17,05,0.00
2015,01,25,17,06,0.00
2015,01,25,17,07,0.00
2015,01,25,17,08,0.00
2015,01,25,17,09,0.00
2015,01,25,17,10,0.00
2015,01,25,17,11,0.00
2015,01,25,17,12,0.00
2015,01,25,17,13,0.00
2015,01,25,17,14,0.00
2015,01,25,17,15,0.00
2015,01,25,17,16,0.00
2015,01,25,17,17,0.00
2015,01,25,17,18,0.00
2015,01,25,17,19,0.00
2015,01,25,17,20,0.00
2015,01,25,17,21,0.00
2015,01,25,17,22,0.00
2015,01,25,17,23,0.00
2015,01,25,17,24,0.00
2015,01,25,17,25,0.00
2015,01,25,17,26,0.00
2015,01,25,17,27,0.00
2015,01,25,17,28,0.00
2015,01,25,17,29,0.00
2015,01,25,17,30,0.00
2015,01,25,17,31,0.00
2015,01,25,17,32,0.00
2015,01,25,17,33,0.00
2015,01,25,17,34,0.00
2015,01,25,17,35,0.00
2015,01,25,17,36,0.00
2015,01,25,17,37,0.00
2015,01,25,17,38,0.00
2015,01,25,17,39,0.00
2015,01,25,17,40,0.00
2015,01,25,17,41,0.00
2015,01,25,17,42,0.00
2015,01,25,17,43,0.00
2015,01,25,17,44,0.00
2015,01,25,17,45,0.00
2015,01,25,17,46,0.00
2015,01,25,17,47,0.00
2015,01,25,17,48,0.00
2015,01,25,17,49,0.00
2015,01,25,17,50,0.00
2015,01,25,17,51,0.00
2015,01,25,17,52,0.00
2015,01,25,17,53,0.00
2015,01,25,17,54,0.00
2015,01,25,17,55,0.00
2015,01,25,17,56,0.00
2015,01,25,17,57,0.00
2015,01,25,17,58,0.00
2015,01,25,17,59,0.00
2015,01,25,18,00,0.00
2015,01,25,18,01,0.00
2015,01,25,18,02,0.00
2015,01,25,18,03,0.00
2015,01,25,18,04,0.00
2015,01,25,18,05,0.00
2015,01,25,18,06,0.00
2015,01,25,18,07,0.00
2015,01,25,18,08,0.00
2015,01,25,18,09,0.00
2015,01,25,18,10,0.00
2015,01,25,18,11,0.00
2015,01,25,18,12,0.00
2015,01,25,18,13,0.00
2015,01,25,18,14,0.00
2015,01,25,18,15,0.00
2015,01,25,18,16,0.00
2015,01,25,18,17,0.00
2015,01,25,18,18,0.00
2015,01,25,18,19,0.00
2015,01,25,18,20,0.00
2015,01,25,18,21,0.00
2015,01,25,18,22,0.00
2015,01,25,18,23,0.00
2015,01,25,18,24,0.00
2015,01,25,18,25,0.00
2015,01,25,18,26,0.00
2015,01,25,18,27,0.00
2015,01,25,18,28,0.00
2015,01,25,18,29,0.00
2015,01,25,18,30,0.00
2015,01,25,18,31,0.00
2015,01,25,18,32,0.00
2015,01,25,18,33,0.00
2015,01,25,18,34,0.00
2015,01,25,18,35,0.00
2015,01,25,18,36,0.00
2015,01,25,18,37,0.00
2015,01,25,18,38,0.00
2015,01,25,18,39,0.00
2015,01,25,18,40,0.00
2015,01,25,18,41,0.00